Regional Weather Roundup
Issued by NWS Charleston, SC

Current Version | Previous Version | Graphics & Text | Print | Product List | Glossary On
Versions: 1 2 3 4 5 6 7 8 9 10 11 12 13 14 15 16 17 18 19 20 21 22 23 24 25 26 27 28 29 30 31 32 33 34 35 36 37 38 39 40 41 42 43 44 45 46 47 48 49 50
000
ASUS42 KCHS 281427
RWRCHS

REGIONAL WEATHER ROUNDUP
NATIONAL WEATHER SERVICE CHARLESTON SC
1000 AM EDT WED JUN 28 2017

NOTE: "FAIR" INDICATES FEW OR NO CLOUDS BELOW 12,000 FEET WITH NO
SIGNIFICANT WEATHER AND/OR OBSTRUCTIONS TO VISIBILITY.

NOT ALL STATIONS ARE QUALITY CONTROLLED. USE DATA WITH CAUTION...
ESPECIALLY DEWPOINT OBSERVATIONS.

SCZ027-030-031-034>040-042>050-281500-
...SOUTHEAST SOUTH CAROLINA...

CITY           SKY/WX    TMP DP  RH WIND       PRES   REMARKS
N CHARLESTON   PTSUNNY   81  65  58 E8        30.14F
WATERFRONT PRK   N/A     79  69  71 E9        30.11S
JOHNS ISLAND   FAIR      82  70  65 E20       30.13S
PINOPOLIS        N/A     75  63  64 E9        30.08S
MONCKS CORNER  FAIR      77  61  57 E9        30.15F
SUMMERVILLE    FAIR      77  63  61 NE5       30.16S
BEAUFORT MCAS  CLOUDY    80  69  69 E8        30.14S
BEAUFORT ARPT  FAIR      79  70  73 NE9       30.13F
HILTON HEAD IS MOSUNNY   79  68  69 N9        30.14S
WALTERBORO     MOSUNNY   79  61  53 E12       30.16S
ALLENDALE      FAIR      79  63  57 VRB6      30.14S

...SOUTHERN MIDLANDS AND PEE DEE...

CITY           SKY/WX    TMP DP  RH WIND       PRES   REMARKS
GEORGETOWN     FAIR      79  59  50 NE10G20   30.17S
KINGSTREE      FAIR      77  54  44 E10G16    30.17S
ORANGEBURG     MOSUNNY   78  58  49 E7        30.16S
BARNWELL       FAIR      81  63  54 E9        30.16S
AIKEN          FAIR      79  55  44 E10       30.20R
MANNING        FAIR      79  63  57 E8        30.17S
COLUMBIA       MOSUNNY   79  57  46 E10       30.17R
SUMTER         SUNNY     79  54  41 E10       30.15R
FLORENCE       SUNNY     78  56  46 E12       30.17S
MYRTLE BEACH   SUNNY     79  57  47 E16       30.17S
N MYRTLE BEACH SUNNY     80  56  43 NE14      30.16S

$$

GAZ063-065-086>088-099>101-113>116-118-119-134>141-150-281500-
...SOUTHEAST GEORGIA...

CITY           SKY/WX    TMP DP  RH WIND       PRES   REMARKS
SAVANNAH ARPT  CLOUDY    80  67  64 NE10      30.13S
HUNTER AAF     MOSUNNY   80  69  68 NE10      30.11S
FORT STEWART   MOSUNNY   79  70  73 NE10      30.11S
STATESBORO     MOSUNNY   80  70  71 E8        30.14S
SYLVANIA       PTSUNNY   79  71  75 E6        30.15S
CLAXTON        FAIR      78  71  78 NE9       30.13F

...CSRA...CENTRAL AND FAR SOUTHEAST GEORGIA...

CITY           SKY/WX    TMP DP  RH WIND       PRES   REMARKS
THOMSON        MOSUNNY   79  64  60 S7        30.21S
AUGUSTA-BUSH   MOSUNNY   82  62  50 SE7       30.14S
AUGUSTA-DANIEL MOSUNNY   81  55  40 E12       30.16S
SWAINSBORO     FAIR      79  70  73 E8        30.15S
VIDALIA        MOSUNNY   79  70  73 E9        30.14S
EASTMAN        FAIR      81  60  48 E8        30.15S
HAZLEHURST     FAIR      80  73  79 E6        30.12S
ALMA           MOSUNNY   79  71  76 E5        30.12R
WAYCROSS       MOSUNNY   81  78  91 E6        30.12S
JESUP          FAIR      81  70  69 E8        30.12S
BAXLEY         FAIR      81  79  94 E8        30.12S
BRUNSWICK      PTSUNNY   82  77  83 NE12      30.12S HX  91
SAINT SIMONS   CLOUDY    82  73  74 NE10      30.10S

$$

SCZ027-028-034-036>038-045-046-048>050-GAZ119-141-281500-
...LAKE AND SUPPLEMENTAL COASTAL OBSERVATIONS...

STATION/POSITION TIME  TEMP    WIND        PRES    WAVE   SWELL
                       AIR SEA DIR/SP/G            HT/PER HT/PER/DIR
                 (UTC) (F)     (DEG/KT/KT) (MB)    (FT/S) (FT/S/D)
WINYAH BAY       1245   78      60/ 13     1021.0
LAKE MURRAY      1350   76      90/  7/  9 1021.0R
ACE BASIN NERRS  1245   78      30/  3     1021.0
FORT PULASKI     1400   78 83   50/ 10/ 12 1020.6
SAPELO ISLAND    1300   79      30/  6     1019.0

$$

ANZ835-935-AMZ111-154-330-350-352-354-370-450-454-472-281500-
...C-MAN AND BUOY OBSERVATIONS...

STATION/POSITION TIME  TEMP    WIND        PRES    WAVE   SWELL
                       AIR SEA DIR/SP/G            HT/PER HT/PER/DIR
                 (UTC) (F)     (DEG/KT/KT) (MB)    (FT/S) (FT/S/D)
BUOY 41004       1410   80 80   50/ 16/ 19 1019.8
BUOY 41008       1350   80 82   60/ 14/ 16 1019.1S
FOLLY BEACH CMAN 1400   80      70/ 18/ 21 1021.2R
CAPERS NEARSHORE 1408   85 83   70/ 17/ 23 1020.1S
FRIPP NEARSHORE  1408   80 83   70/ 12/ 16 1019.7F


STATION/POSITION TIME  TEMP    WIND        PRES    WAVE   SWELL
                       AIR SEA DIR/SP/G            HT/PER HT/PER/DIR
                 (UTC) (F)     (DEG/KT/KT) (MB)    (FT/S) (FT/S/D)
5E ST. MARYS GA  1400      80                N/A     2/ 3
FRYING PAN BUOY  1410   79 80   50/ 14/ 17 1020.8
BUOY 41025       1350   76 80   10/ 10/ 12 1020.8R   2/ 7   2/ 70/ 7
CAPE LOOKOUT NC  1400   78      40/ 10/ 11 1021.0R
BUOY 41002       1350   79 80   20/ 10/ 12 1019.1R   3/ 7   2/170/ 7
BUOY 41010       1410   79 83  350/ 12/ 14 1018.1
ST AUGUSTINE FL  1400   79 79   40/  9/ 11 1019.2R


$$



USA.gov is the U.S. government's official web portal to all federal, state and local government web resources and services.